EW5795 Weather Reports


time (UTC)temp
C
wind
direction
speed
KPH
gust
KPH
rain 1hr
cm
rain 24hr
cm
rain mn
cm
humidity
%
barometer
mb
20260506134526 15 172 6.4 22.5 0.00 0.00 0.00 63 1009.2
20260506133026 15 157 8.0 22.5 0.00 0.00 0.00 64 1009.1
20260506131524 15 24 6.4 17.7 0.00 0.00 0.00 68 1009.0
20260506130024 14 92 4.8 20.9 0.00 0.00 0.00 70 1009.0
20260506124523 14 259 3.2 25.7 0.00 0.00 0.00 69 1009.1
20260506123022 15 36 4.8 19.3 0.00 0.00 0.00 67 1008.9
20260506121519 15 61 8.0 19.3 0.00 0.00 0.00 66 1008.9
20260506120019 15 270 4.8 20.9 0.00 0.00 0.00 66 1008.9
20260506114518 15 87 8.0 19.3 0.00 0.00 0.00 66 1008.9
20260506113018 15 96 9.7 20.9 0.00 0.00 0.00 67 1008.8
20260506111517 14 81 6.4 24.1 0.00 0.00 0.00 63 1008.8
20260506110015 15 63 8.0 19.3 0.00 0.00 0.00 66 1008.8
20260506104515 14 21 9.7 30.6 0.00 0.00 0.00 67 1008.8
20260506103015 15 58 9.7 27.4 0.00 0.00 0.00 67 1008.8
20260506101511 15 63 4.8 22.5 0.00 0.00 0.00 69 1008.8
20260506100009 14 74 9.7 22.5 0.00 0.00 0.00 69 1008.7
20260506094506 13 59 4.8 25.7 0.00 0.00 0.00 72 1008.7
20260506093005 13 86 4.8 22.5 0.00 0.00 0.00 76 1008.6
20260506091502 12 65 3.2 19.3 0.00 0.00 0.00 77 1008.7
20260506090001 12 113 8.0 22.5 0.00 0.00 0.00 76 1008.6
20260506084501 12 63 8.0 20.9 0.00 0.00 0.00 75 1008.6
20260506083105 12 66 8.0 25.7 0.00 0.00 0.00 73 1008.5
20260506081559 13 41 6.4 19.3 0.00 0.00 0.00 73 1008.5
20260506073056 13 96 12.9 22.5 0.00 0.00 0.00 75 1008.3
20260506071553 13 55 12.9 25.7 0.00 0.00 0.00 76 1008.3
20260506061537 10 56 8.0 22.5 0.00 0.00 0.00 83 1008.1
20260506044524 10 34 3.2 11.3 0.00 0.00 0.00 83 1008.1
20260506043018 10 59 4.8 14.5 0.00 0.00 0.00 82 1008.0
20260506041518 10 34 6.4 16.1 0.00 0.00 0.00 82 1008.1
20260506040037 10 76 4.8 17.7 0.00 0.00 0.00 81 1008.1
20260506034513 10 135 8.0 16.1 0.00 0.00 0.00 81 1008.1
20260506033013 10 92 4.8 19.3 0.00 0.00 0.00 82 1008.2
20260506031526 10 44 4.8 16.1 0.00 0.00 0.00 83 1008.3
20260506030010 10 94 6.4 17.7 0.00 0.00 0.00 83 1008.4
20260506024517 10 49 3.2 12.9 0.00 0.00 0.00 83 1008.4
20260506023010 10 102 1.6 19.3 0.00 0.00 0.00 82 1008.5
20260506021510 10 59 1.6 12.9 0.00 0.00 0.00 82 1008.5
20260506020007 10 341 6.4 16.1 0.00 0.00 0.00 82 1008.5
20260506014506 10 31 3.2 17.7 0.00 0.00 0.00 82 1008.7
20260506013002 10 34 3.2 12.9 0.00 0.00 0.00 82 1008.7
20260506011502 10 92 4.8 14.5 0.00 0.00 0.00 82 1008.8
20260506010101 10 65 3.2 11.3 0.00 0.00 0.00 82 1008.8
20260506004559 9 78 6.4 19.3 0.00 0.00 0.00 83 1009.0
20260506003057 9 66 4.8 14.5 0.00 0.00 0.00 82 1009.1
20260506001556 9 88 6.4 16.1 0.00 0.00 0.00 82 1009.2
20260506000058 9 47 6.4 17.7 0.00 0.00 0.00 82 1009.3
20260505234558 9 72 4.8 19.3 0.00 0.00 0.00 83 1009.4
20260505233102 9 20 3.2 16.1 0.00 0.00 0.00 83 1009.6
20260505231553 9 108 3.2 12.9 0.00 0.00 0.00 82 1009.7
20260505230046 9 47 6.4 16.1 0.00 0.00 0.00 83 1009.7
20260505224545 9 107 3.2 9.7 0.00 0.00 0.00 83 1009.8
20260505223051 9 70 3.2 16.1 0.00 0.00 0.00 82 1009.8
20260505221541 9 42 8.0 17.7 0.00 0.00 0.00 82 1010.0
20260505220041 10 70 3.2 17.7 0.00 0.00 0.00 80 1010.1
20260505214547 10 11 4.8 20.9 0.00 0.00 0.00 80 1010.1
20260505213037 10 57 9.7 19.3 0.00 0.00 0.00 79 1010.2
20260505211537 9 82 3.2 16.1 0.00 0.00 0.00 78 1010.2
20260505210035 9 12 4.8 17.7 0.00 0.00 0.00 78 1010.3
20260505204536 9 30 4.8 17.7 0.00 0.00 0.00 78 1010.3
20260505203035 9 77 6.4 19.3 0.00 0.00 0.00 77 1010.2
20260505201535 9 37 6.4 19.3 0.00 0.00 0.00 76 1010.2
20260505200040 10 81 6.4 16.1 0.00 0.00 0.00 75 1010.1
20260505194533 10 72 4.8 17.7 0.00 0.00 0.00 75 1010.1
20260505193032 10 3 4.8 19.3 0.00 0.00 0.00 75 1010.0
20260505191532 10 353 3.2 17.7 0.00 0.00 0.00 75 1009.9
20260505190037 10 44 1.6 12.9 0.00 0.00 0.00 74 1009.9
20260505184531 10 24 4.8 16.1 0.00 0.00 0.00 74 1009.9
20260505183033 10 10 3.2 16.1 0.00 0.00 0.00 74 1009.8
20260505181530 10 34 3.2 12.9 0.00 0.00 0.00 73 1009.8
20260505180028 11 58 4.8 20.9 0.00 0.00 0.00 72 1009.9
20260505174537 11 26 3.2 17.7 0.00 0.00 0.00 72 1009.8
20260505173028 12 56 3.2 16.1 0.00 0.00 0.00 71 1010.0
20260505171528 12 30 3.2 24.1 0.00 0.00 0.00 70 1009.9
20260505170026 12 284 6.4 22.5 0.00 0.00 0.00 70 1009.9
20260505164526 12 318 4.8 17.7 0.00 0.00 0.00 70 1009.9
20260505163025 12 309 8.0 20.9 0.00 0.00 0.00 70 1009.9
20260505161525 13 57 11.3 24.1 0.00 0.00 0.00 70 1009.9
20260505153024 14 358 8.0 25.7 0.00 0.00 0.00 67 1009.9
20260505151524 15 71 6.4 22.5 0.00 0.00 0.00 66 1010.0